Starlink 31242

operational
NORAD ID: 58864 Int'l Des: 2024-019 Owner: SPXS Country: US Constellation: starlink
LEOCIRCULAR

关于 Starlink 31242

正在加载描述...

实时位置

正在加载3D地球...

即将过境

高度历史

Altitude vs Time

uPlot chart will show altitude changes over time

两行轨道根数

1 58864U 24019M 25308.80970645 .00013816 00000-0 51072-3 0 9991
2 58864 43.0003 234.1790 0003785 285.7743 74.2691 15.27571321 99986
Epoch: Nov 4, 2025 • Age: 11 hours

当前状态

高度 493.4 km
速度 7.62 km/s
星下点 -40.96°S, 14.55°W
发射日期 Jan 29, 2024
运行时间 1.7 years
类型 internet

技术详情

分类 Payload
质量 730.00 kg
干质量 700.00 kg
总质量 730.00 kg
长度 0.30 m
直径 4.10 m
跨度 29.00 m
形状 Box + pan
制造商 SPXS
平台类型 Starlink V2M
阶段状态 In Orbit
所有者/国家 SPXS/US

大型星座

Loading constellations...